Zurück zum Katalog

PEGASUS DEB

AktivPO
NORAD 39922·DEBRIS·🇺🇸 United States

Gestartet May 19, 1994 von Vandenberg Space Force Base

Loading…

Nächste Überflüge (nächste 24 Stunden)

TLE

AlterndSource: Space-Track

Epoche: Sep 10, 2026, 06:25 UTC

1 39922U 94029AFV 26253.26739611  .00007383  00000-0  60479-3 0  9992
2 39922  81.5812 243.1854 0105909  55.0290 306.0816 14.94784888657513

Verfolge PEGASUS DEB in Echtzeit mit AllMySat

Download on the App Store